Regional Weather Roundup
Issued by NWS Jackson, KY

Home | Current Version | Previous Version | Text Only | Print | Product List | Glossary Off
Versions: 1 2 3 4 5 6 7 8 9 10 11 12 13 14 15 16 17 18 19 20 21 22 23 24 25 26 27 28 29 30 31 32 33 34 35 36 37 38 39 40 41 42 43 44 45 46 47 48 49 50

000
ASUS43 KJKL 020810
RWRJKL

EAST KENTUCKY HOURLY WEATHER ROUNDUP
NATIONAL WEATHER SERVICE JACKSON KY
400 AM EDT SUN AUG 02 2015

NOTE: "FAIR" INDICATES FEW OR NO CLOUDS BELOW 12,000 FEET WITH
NO SIGNIFICANT WEATHER AND/OR OBSTRUCTIONS TO VISIBILITY.

* THESE REPORTS ARE NOT UNDER NWS QUALITY CONTROL AND MAY NOT
  REPORT WEATHER SUCH AS PRECIPITATION AND FOG.

KYZ079-080-083-085-087-088-110-112-115-119-120-020900
...EASTERN KENTUCKY...

CITY           SKY/WX    TMP DP  RH WIND       PRES   REMARKS
JACKSON        CLEAR     64  59  83 CALM      30.03R
LONDON         CLEAR     62  57  83 CALM      30.02S
SOMERSET*      CLEAR     59  59 100 CALM      30.03S
MONTICELLO*    CLEAR     58  58 100 CALM      30.04S
WILLIAMSBURG*    N/A     59  59 100 CALM      30.02S
MIDDLESBORO*   CLEAR     61  60  96 CALM      30.03R
HAZARD APT*    SUNNY     61  61 100 CALM      30.03R
BLACK MTN*       N/A     59  55  88 VRB8        N/A
PIKEVILLE APT* CLEAR     64  63  94 CALM      30.02F
BIG SANDY*     PTSUNNY   64  63  96 CALM      30.02S
MOREHEAD APT*  PTSUNNY   63  61  94 CALM      30.03S
$$

KYZ035-036-041-042-044-050-067-078-099-020900
...CENTRAL KENTUCKY...

CITY           SKY/WX    TMP DP  RH WIND       PRES   REMARKS
MT STERLING*   CLEAR     59  59 100 CALM      30.03S
FLEMING/MASON* CLEAR     61  59  94 SW5       30.02S
DANVILLE*      CLEAR     59  59 100 CALM      30.03S
RICHMOND*      CLEAR     61  57  88 CALM      30.01F
LEXINGTON      CLEAR     62  59  90 CALM      30.02S
FRANKFORT      CLEAR     62  59  90 CALM      29.99F
$$

KYZ091>093-OHZ055-061-077-WVZ005-015-034-035-042-020900
...SOUTHERN OHIO/WEST VIRGINIA...

CITY           SKY/WX    TMP DP  RH WIND       PRES   REMARKS
COVINGTON      MOCLDY    61  60  97 CALM      30.00S
COLUMBUS       MOCLDY    65  59  81 SE3       29.97S
DAYTON         MOCLDY    66  59  78 SW7       29.99S
WILMINGTON     PTCLDY    65  57  75 W6        29.99F
HUNTINGTON     MOCLDY    61  60  97 CALM      29.99F
CHARLESTON     PTCLDY    61  60  97 CALM      30.00R
PINEVILLE*     MOCLDY    59  59 100 MISG      30.09S
BECKLEY        PTCLDY    59  55  87 CALM      30.06S
BLUEFIELD      PTCLDY    64  54  69 CALM      30.08S
$$

VAZ002-007-008-TNZ017-027-036-066-071-020900
...SOUTHWEST VIRGINIA/EAST TENNESSEE...

CITY           SKY/WX    TMP DP  RH WIND       PRES   REMARKS
WISE*          PTCLDY    61  61 100 CALM      30.09S
ABINGDON*      CLEAR     63  60  91 CALM      30.05S
BRISTOL        PTCLDY    61  59  93 CALM      30.02S
KNOXVILLE      PTCLDY    68  64  87 CALM      29.98S
OAK RIDGE      CLEAR     65  62  90 CALM      30.00S
CROSSVILLE     CLEAR     62  59  90 CALM      30.04S
NASHVILLE      PTCLDY    68  63  84 CALM      29.99S
$$

...KEY TO REMARKS...
VSB - VISIBILITY IN MILES
WCI - WIND CHILL INDEX
HX  - HEAT INDEX

$$


USA.gov is the U.S. government's official web portal to all federal, state and local government web resources and services.